[[{"header":{"parameterUnit":"m.s-1","parameterCategory":1,"la1":30.2991,"la2":30.254,"lo1":-89.0895,"lo2":-89.0444,"dy":0.0017,"dx":0.0017,"nx":28,"ny":28,"refTime":"2024-03-12T21:00:00:Z","depth":0,"parameterNumber":2,"parameterNumberName":"U-component_of_WINDS"},"data":[0,0,0,0,0,0,0,0,0,0,0,0,0,0,0,0,0,0,0,0,0,0,0,0,0,0,0,0,0,0,0,0,0,0,0,0,0,0,0,0,0,0,0,0,0,0,0,0,0,0,0,0,0,0,0,0,0,0,-0.085,-0.085,0,-0.0823,-0.0823,-0.0823,-0.0815,-0.0815,-0.0815,-0.0815,-0.0789,-0.0788,-0.0787,0,0,0,0,0,0,0,0,0,0,0,0,0,-0.0899,-0.0898,-0.085,-0.085,-0.085,-0.0823,-0.0823,-0.0822,-0.0815,-0.0815,-0.0815,-0.0815,-0.0789,-0.0788,-0.0787,0,0,0,0,0,0,0,0,0,0,0,0,0,-0.0875,-0.0897,-0.0851,-0.0843,-0.0842,-0.0823,-0.0823,-0.0822,-0.0815,-0.0815,-0.0815,-0.0815,-0.0789,-0.0788,-0.0787,-0.0775,0,0,-0.0783,-0.0783,0,0,0,0,0,0,0,0,-0.0876,-0.0873,-0.0844,-0.0843,-0.0842,-0.0823,-0.083,-0.0806,-0.0815,-0.0825,-0.0815,-0.0815,-0.08,-0.0798,-0.0792,-0.0774,-0.0772,-0.0783,-0.0782,-0.0782,-0.0781,0,0,0,0,0,0,0,-0.0878,-0.0875,-0.084,-0.0844,-0.0842,-0.0841,-0.0838,-0.0826,-0.0812,-0.0824,-0.0823,-0.082,-0.0799,-0.0793,-0.0792,-0.0772,-0.0783,-0.0782,-0.0781,-0.0781,-0.0744,-0.0743,0,0,0,0,0,0,-0.0881,-0.0876,-0.0841,-0.0839,-0.086,-0.084,-0.0837,-0.0829,-0.0812,-0.0809,-0.082,-0.082,-0.0796,-0.0793,-0.0791,-0.0776,-0.0782,-0.078,-0.078,-0.0744,-0.0744,-0.0743,0,0,0,0,0,0,-0.0882,-0.0878,-0.0842,-0.0857,-0.0853,-0.0839,-0.083,-0.0828,-0.0822,-0.0809,-0.0806,-0.0816,-0.0796,-0.0792,-0.0779,-0.0775,-0.078,-0.0779,-0.0744,-0.0744,-0.0743,-0.0747,0,0,0,0,0,0,-0.0883,-0.0878,-0.0873,-0.0857,-0.0852,-0.083,-0.083,-0.0827,-0.082,-0.0819,-0.0805,-0.0802,-0.0796,-0.0781,-0.0778,-0.0773,-0.0778,-0.0744,-0.0744,-0.0744,-0.0747,-0.0747,-0.0746,0,0,0,0,0,-0.0885,-0.0875,-0.0872,-0.0868,-0.0844,-0.0829,-0.0826,-0.0818,-0.0819,-0.0814,-0.0806,-0.0803,-0.0776,-0.078,-0.0776,-0.0771,-0.0745,-0.0744,-0.0744,-0.0747,-0.0747,-0.0746,0,0,0,0,0,0,-0.089,-0.0872,-0.087,-0.0854,-0.0843,-0.0828,-0.0821,-0.0818,-0.0807,-0.0807,-0.0798,-0.0795,-0.0782,-0.0775,-0.078,-0.076,-0.076,-0.0759,-0.0764,-0.0764,-0.0763,-0.0765,-0.0777,0,0,0,0,0,-0.0889,-0.0878,-0.0863,-0.0851,-0.0846,-0.0835,-0.0828,-0.0822,-0.0811,-0.0807,-0.0797,-0.0787,-0.0777,-0.077,-0.0759,-0.0746,-0.0743,-0.0741,-0.0741,-0.0741,-0.074,-0.0733,-0.0732,-0.0742,-0.0742,-0.0742,0,0,-0.0888,-0.0877,-0.087,-0.0852,-0.0843,-0.0832,-0.0831,-0.0819,-0.0812,-0.0805,-0.0792,-0.0785,-0.0773,-0.076,-0.0754,-0.0754,-0.0737,-0.074,-0.074,-0.0739,-0.0733,-0.0732,-0.0731,-0.0741,-0.0741,-0.0741,0,0,-0.088,-0.087,-0.0859,-0.085,-0.0837,-0.083,-0.0827,-0.0813,-0.0808,-0.0794,-0.079,-0.0781,-0.0763,-0.0755,-0.0748,-0.0739,-0.0736,-0.0736,-0.0734,-0.0728,-0.0727,-0.0726,-0.0724,-0.0723,-0.0735,-0.0735,-0.0735,0,-0.088,-0.0862,-0.0854,-0.0843,-0.0835,-0.0829,-0.0819,-0.0811,-0.0795,-0.079,-0.0791,-0.0768,-0.076,-0.0745,-0.0743,-0.0738,-0.0736,-0.0737,-0.0728,-0.0727,-0.0726,-0.0724,-0.0722,-0.0735,-0.0735,-0.0735,-0.0735,0,-0.0864,-0.0852,-0.0845,-0.083,-0.0821,-0.0811,-0.0801,-0.0794,-0.079,-0.0783,-0.0771,-0.076,-0.0748,-0.0744,-0.074,-0.073,-0.073,-0.0729,-0.073,-0.0726,-0.0723,-0.0722,-0.0735,-0.0735,-0.0735,-0.0735,0,0,-0.0857,-0.0838,-0.0835,-0.0829,-0.0814,-0.0806,-0.0795,-0.0783,-0.0778,-0.0767,-0.0759,-0.0744,-0.0744,-0.0736,-0.0732,-0.0726,-0.072,-0.0726,-0.0726,-0.0726,-0.0709,-0.071,-0.0709,-0.0719,-0.0718,-0.0718,-0.0711,0,-0.0848,-0.0828,-0.082,-0.0805,-0.0795,-0.079,-0.0781,-0.0772,-0.0765,-0.0756,-0.075,-0.074,-0.0739,-0.0735,-0.0729,-0.0722,-0.0717,-0.0723,-0.0712,-0.0711,-0.0715,-0.0708,-0.0709,-0.0702,-0.0709,-0.0709,-0.0709,0,-0.0833,-0.0823,-0.0806,-0.0794,-0.079,-0.0782,-0.0771,-0.0762,-0.0752,-0.0748,-0.074,-0.0736,-0.0726,-0.0728,-0.0715,-0.0719,-0.0714,-0.071,-0.0709,-0.0708,-0.071,-0.0707,-0.0699,-0.0699,-0.0707,-0.0707,-0.0708,0,-0.0831,-0.0813,-0.0801,-0.0796,-0.0781,-0.0775,-0.0769,-0.0759,-0.0753,-0.0743,-0.0739,-0.0729,-0.0724,-0.0716,-0.071,-0.0711,-0.0698,-0.0698,-0.0695,-0.0695,-0.0692,-0.0692,-0.0684,-0.0688,-0.0688,-0.0688,-0.0688,0,-0.0821,-0.0812,-0.08,-0.0793,-0.0782,-0.0774,-0.0764,-0.0758,-0.0749,-0.0741,-0.0736,-0.0729,-0.0721,-0.0713,-0.0708,-0.0698,-0.0695,-0.0692,-0.0691,-0.0693,-0.0693,-0.069,-0.069,-0.0688,-0.0688,-0.0688,-0.0688,0,-0.0817,-0.0809,-0.0795,-0.0783,-0.0779,-0.0772,-0.0762,-0.0755,-0.0749,-0.0739,-0.0736,-0.0727,-0.0717,-0.071,-0.0698,-0.0695,-0.0685,-0.0683,-0.0688,-0.0687,-0.0684,-0.0685,-0.0673,-0.0672,-0.0677,-0.0677,-0.0677,0,-0.0811,-0.0804,-0.0791,-0.0785,-0.0778,-0.0769,-0.0763,-0.0755,-0.0749,-0.0737,-0.0732,-0.0722,-0.0714,-0.0699,-0.0692,-0.0683,-0.0681,-0.0678,-0.068,-0.0682,-0.0682,-0.0682,-0.0682,-0.0678,-0.0678,-0.0678,-0.0678,0,-0.0803,-0.0799,-0.079,-0.0779,-0.0771,-0.0763,-0.0754,-0.075,-0.0741,-0.0734,-0.0724,-0.0718,-0.0706,-0.0696,-0.0686,-0.0681,-0.0678,-0.0677,-0.0676,-0.0678,-0.0681,-0.0679,-0.0688,-0.0677,-0.0677,-0.0677,-0.0677,-0.0677,-0.0798,-0.0791,-0.0781,-0.0771,-0.0764,-0.0756,-0.0749,-0.0743,-0.0734,-0.0723,-0.0719,-0.0709,-0.0701,-0.0687,-0.0682,-0.0675,-0.0675,-0.0673,-0.0672,-0.0672,-0.0672,-0.0682,-0.0673,-0.0673,-0.0673,-0.0673,-0.0673,0,-0.0789,-0.0783,-0.0774,-0.0762,-0.0754,-0.0752,-0.0742,-0.0736,-0.0728,-0.0719,-0.0712,-0.0701,-0.0692,-0.0684,-0.0675,-0.0671,-0.0669,-0.0669,-0.0669,-0.0668,-0.0673,-0.0675,-0.067,-0.067,-0.067,-0.067,-0.067,-0.067,-0.0784,-0.0773,-0.0769,-0.0754,-0.0748,-0.0738,-0.0733,-0.0726,-0.072,-0.0708,-0.07,-0.0695,-0.0687,-0.0678,-0.067,-0.0668,-0.0665,-0.0665,-0.0663,-0.0667,-0.0668,-0.0668,-0.067,-0.0665,-0.0665,-0.0659,-0.0659,-0.0659]},{"header":{"parameterUnit":"m.s-1","parameterCategory":1,"la1":30.2991,"la2":30.254,"lo1":-89.0895,"lo2":-89.0444,"dy":0.0017,"dx":0.0017,"nx":28,"ny":28,"refTime":"2024-03-12T21:00:00:Z","depth":0,"parameterNumber":3,"parameterNumberName":"V-component_of_WINDS"},"data":[0,0,0,0,0,0,0,0,0,0,0,0,0,0,0,0,0,0,0,0,0,0,0,0,0,0,0,0,0,0,0,0,0,0,0,0,0,0,0,0,0,0,0,0,0,0,0,0,0,0,0,0,0,0,0,0,0,0,2.0448,2.0449,0,2.0575,2.0576,2.0577,2.0602,2.0601,2.06,2.0599,2.0725,2.073,2.0734,0,0,0,0,0,0,0,0,0,0,0,0,0,2.0221,2.0225,2.0447,2.0449,2.0451,2.0574,2.0576,2.0578,2.0602,2.0601,2.06,2.0599,2.0724,2.0729,2.0734,0,0,0,0,0,0,0,0,0,0,0,0,0,2.0331,2.0226,2.0447,2.0478,2.0482,2.0574,2.0576,2.0578,2.0603,2.0601,2.06,2.0598,2.0722,2.0729,2.0735,2.0804,0,0,2.0755,2.0757,0,0,0,0,0,0,0,0,2.0324,2.0339,2.0472,2.0476,2.0481,2.0571,2.0543,2.0654,2.0603,2.0557,2.0599,2.0597,2.0675,2.0685,2.0712,2.081,2.0816,2.0755,2.0759,2.0762,2.0764,0,0,0,0,0,0,0,2.0317,2.0334,2.0498,2.0474,2.0479,2.0484,2.0498,2.0564,2.0622,2.0561,2.0563,2.0578,2.0677,2.0706,2.0715,2.0818,2.0755,2.0761,2.0765,2.0767,2.0976,2.0978,0,0,0,0,0,0,2.0304,2.0327,2.0494,2.0501,2.0397,2.0489,2.0505,2.0543,2.0622,2.0632,2.0579,2.0578,2.0696,2.0708,2.072,2.0805,2.0762,2.0768,2.0772,2.0975,2.0977,2.0979,0,0,0,0,0,0,2.0299,2.0319,2.0488,2.0415,2.0437,2.0494,2.0538,2.0547,2.0576,2.0636,2.0646,2.0598,2.0695,2.0711,2.0783,2.081,2.0771,2.0777,2.0973,2.0975,2.0978,2.0977,0,0,0,0,0,0,2.0293,2.0317,2.0345,2.0415,2.0441,2.0551,2.054,2.055,2.0587,2.0588,2.0656,2.0666,2.0695,2.0773,2.0789,2.0818,2.0782,2.097,2.0974,2.0977,2.0974,2.0979,2.0982,0,0,0,0,0,2.0285,2.034,2.0347,2.0367,2.0478,2.0553,2.0567,2.06,2.0589,2.0617,2.0655,2.0664,2.0804,2.078,2.0799,2.083,2.0969,2.0973,2.0977,2.0973,2.0978,2.0982,0,0,0,0,0,0,2.0271,2.035,2.0358,2.0438,2.0488,2.0557,2.0593,2.0605,2.0659,2.0657,2.0695,2.071,2.078,2.0812,2.0784,2.09,2.0886,2.0893,2.0876,2.0882,2.0886,2.0876,2.0787,0,0,0,0,0,2.0277,2.0333,2.0398,2.0462,2.0487,2.0535,2.0569,2.0591,2.0644,2.0665,2.0709,2.0759,2.0814,2.085,2.0904,2.0979,2.0993,2.1009,2.1013,2.1016,2.1022,2.1062,2.1069,2.0991,2.0991,2.0991,0,0,2.029,2.034,2.0373,2.046,2.0502,2.0557,2.0553,2.0612,2.0653,2.0674,2.0745,2.0778,2.0836,2.091,2.0944,2.0939,2.1047,2.1021,2.1023,2.1027,2.1067,2.1074,2.108,2.0994,2.0993,2.0993,0,0,2.0343,2.0387,2.0444,2.0486,2.0549,2.0581,2.0594,2.0661,2.0684,2.0756,2.0772,2.082,2.0915,2.0955,2.0988,2.1053,2.1062,2.107,2.1091,2.1129,2.1135,2.1141,2.1163,2.117,2.1076,2.1076,2.1076,0,2.0351,2.0437,2.0472,2.053,2.0567,2.0589,2.0646,2.0684,2.0761,2.0785,2.0778,2.0897,2.0938,2.102,2.1035,2.1062,2.1077,2.1062,2.1132,2.1138,2.1143,2.1165,2.1173,2.1076,2.1076,2.1076,2.1076,0,2.0443,2.0501,2.054,2.0614,2.0656,2.0713,2.0755,2.0792,2.0809,2.0841,2.0912,2.0962,2.1026,2.1047,2.1064,2.1131,2.1125,2.1124,2.1111,2.1151,2.1171,2.118,2.1077,2.1077,2.1076,2.1076,0,0,2.0492,2.0584,2.0597,2.0631,2.0701,2.0746,2.0803,2.0866,2.0897,2.0948,2.0996,2.1075,2.1074,2.1111,2.1133,2.1167,2.1213,2.1162,2.1164,2.1169,2.1288,2.1287,2.1296,2.122,2.1221,2.1223,2.1282,0,2.0552,2.0656,2.0688,2.0775,2.0828,2.0848,2.0897,2.0945,2.0975,2.1024,2.1057,2.1112,2.1107,2.113,2.1164,2.12,2.1237,2.1196,2.1262,2.1264,2.1247,2.1307,2.1308,2.1362,2.1291,2.1292,2.1293,0,2.0637,2.069,2.0782,2.0844,2.0867,2.0911,2.0971,2.1017,2.107,2.109,2.1131,2.1149,2.1207,2.119,2.1269,2.1241,2.1269,2.1291,2.1294,2.1301,2.1281,2.1315,2.138,2.1388,2.1306,2.1305,2.1304,0,2.0662,2.0757,2.0823,2.0851,2.0925,2.0955,2.0987,2.1039,2.1074,2.1126,2.1148,2.1205,2.1236,2.1279,2.1311,2.1296,2.1387,2.1373,2.1403,2.1403,2.1422,2.142,2.1491,2.1441,2.1441,2.1441,2.1441,0,2.0725,2.078,2.0835,2.0876,2.0938,2.0973,2.1032,2.1065,2.111,2.1157,2.1177,2.122,2.126,2.1307,2.1333,2.1393,2.1407,2.1423,2.1429,2.1422,2.1419,2.144,2.1437,2.1443,2.1443,2.1442,2.1442,0,2.0764,2.0803,2.0877,2.0941,2.0958,2.1,2.1054,2.1093,2.1124,2.1182,2.1197,2.1245,2.1301,2.1338,2.141,2.1426,2.1492,2.1498,2.1475,2.1478,2.1505,2.1502,2.1592,2.1605,2.1547,2.1547,2.1548,0,2.0802,2.0845,2.0913,2.0946,2.0978,2.1031,2.1066,2.1102,2.1138,2.1201,2.1232,2.129,2.1338,2.1427,2.1467,2.1521,2.1528,2.1555,2.1536,2.1526,2.1527,2.1523,2.1527,2.1558,2.1559,2.1559,2.156,0,2.0865,2.0882,2.0934,2.0992,2.1034,2.1081,2.1128,2.1153,2.1196,2.1236,2.1294,2.1332,2.1405,2.1461,2.1519,2.155,2.1561,2.1565,2.1575,2.1567,2.1552,2.1559,2.1483,2.1563,2.1563,2.1563,2.1562,2.1562,2.0904,2.0942,2.0996,2.1052,2.1091,2.1134,2.1173,2.1209,2.1258,2.1321,2.1339,2.1399,2.1448,2.1527,2.1559,2.1605,2.1602,2.1616,2.162,2.1622,2.1622,2.1545,2.1616,2.1616,2.1616,2.1616,2.1616,0,2.0967,2.1002,2.1053,2.1119,2.1162,2.117,2.1222,2.1257,2.131,2.1356,2.1403,2.1469,2.1523,2.1567,2.1622,2.1651,2.1657,2.1664,2.1662,2.1668,2.1623,2.1608,2.1658,2.1658,2.1658,2.1657,2.1657,2.1657,2.1005,2.107,2.1092,2.1175,2.121,2.127,2.1298,2.1337,2.1374,2.1446,2.1492,2.152,2.1564,2.1623,2.1672,2.1683,2.1702,2.1708,2.172,2.1676,2.1672,2.1667,2.1654,2.1712,2.1712,2.1762,2.1762,2.1762]}]]